Location: Newark
(30.0333°N, 31.2167°E)
Time: 19:29:12
(UTC+00:00)

Vanguard 2 - All Passes

Search period start: 26 January 2020 00:00
Search period end: 05 February 2020 00:00
Orbit: 553 x 2938 km, 32.9° (Epoch: 25 January)

Date Brightness Start Highest point End Pass type
(mag) Time Alt. Az. Time Alt. Az. Time Alt. Az.
26 Jan - 05:26:45 10° SSW 05:41:05 33° SSE 05:52:10 10° E daylight
26 Jan - 07:36:56 10° SW 07:52:38 66° SSE 08:02:26 10° ENE daylight
26 Jan - 09:50:40 10° W 10:03:24 80° N 10:10:43 10° ENE daylight
26 Jan - 12:04:23 10° WNW 12:13:15 78° N 12:18:34 10° E daylight
26 Jan - 14:16:12 10° W 14:21:37 38° SSW 14:25:34 10° SE daylight
27 Jan - 03:38:57 10° S 03:47:21 15° SE 03:55:09 10° ESE visible
27 Jan - 05:43:30 10° SSW 05:59:10 42° SSE 06:10:50 10° E daylight
27 Jan - 07:54:55 10° WSW 08:10:45 78° SSE 08:20:27 10° ENE daylight
27 Jan - 10:09:11 10° W 10:21:33 75° N 10:28:40 10° E daylight
27 Jan - 12:22:41 10° WNW 12:31:17 90° NNW 12:36:29 10° ESE daylight
27 Jan - 14:34:42 10° W 14:39:14 24° SW 14:42:46 10° SSE daylight
28 Jan - 03:53:28 10° S 04:05:25 22° SE 04:16:08 10° E visible
28 Jan - 06:00:40 10° SW 06:17:16 52° SSE 06:29:12 10° E daylight
28 Jan - 08:13:09 10° WSW 08:28:53 88° SSE 08:38:24 10° ENE daylight
28 Jan - 10:27:42 10° W 10:39:43 74° N 10:46:37 10° E daylight
28 Jan - 12:40:56 10° WNW 12:49:13 73° SSW 12:54:18 10° ESE daylight
28 Jan - 14:53:47 10° WSW 14:56:44 15° SW 14:59:16 10° S daylight
29 Jan - 04:09:16 10° SSW 04:23:25 30° SE 04:35:45 10° E visible
29 Jan - 06:18:11 10° SW 06:35:20 63° SSE 06:47:23 10° ENE daylight
29 Jan - 08:31:32 10° WSW 08:47:03 85° NNW 08:56:22 10° ENE daylight
29 Jan - 10:46:10 10° W 10:57:52 77° N 11:04:36 10° E daylight
29 Jan - 12:59:13 10° WNW 13:07:02 54° SSW 13:11:57 10° SE daylight
30 Jan - 02:24:42 10° SSE 02:29:47 12° SE 02:34:52 10° ESE visible
30 Jan - 04:25:45 10° SSW 04:41:23 39° SE 04:54:43 10° E visible
30 Jan - 06:36:00 10° WSW 06:53:28 73° SSE 07:05:28 10° ENE daylight
30 Jan - 08:50:02 10° W 09:05:16 79° N 09:14:21 10° E daylight
30 Jan - 11:04:35 10° WNW 11:16:00 84° NNE 11:22:34 10° E daylight
30 Jan - 13:17:37 10° W 13:24:41 38° SW 13:29:22 10° SSE daylight
31 Jan - 02:37:31 10° S 02:47:43 18° SE 02:57:49 10° E visible
31 Jan - 04:42:41 10° SW 04:59:22 48° SSE 05:13:16 10° E daylight
31 Jan - 06:54:03 10° WSW 07:11:38 83° SSE 07:23:30 10° ENE daylight
31 Jan - 09:08:36 10° W 09:23:31 77° N 09:32:21 10° E daylight
31 Jan - 11:22:57 10° WNW 11:34:03 84° SSW 11:40:26 10° ESE daylight
31 Jan - 13:36:15 10° W 13:42:11 25° SW 13:46:26 10° SSE daylight
01 Feb - 02:52:45 10° S 03:05:33 26° SE 03:18:10 10° E visible
01 Feb - 05:00:00 10° SW 05:17:23 58° SSE 05:31:36 10° ENE daylight
01 Feb - 07:12:21 10° WSW 07:29:51 89° NNW 07:41:31 10° ENE daylight
01 Feb - 09:27:10 10° W 09:41:47 78° N 09:50:22 10° E daylight
01 Feb - 11:41:17 10° WNW 11:51:59 69° SSW 11:58:12 10° ESE daylight
01 Feb - 13:55:28 10° W 13:59:35 16° SW 14:02:52 10° S daylight
02 Feb - 03:08:54 10° SSW 03:23:22 34° SE 03:37:32 10° E visible
02 Feb - 05:17:37 10° SW 05:35:28 69° SSE 05:49:47 10° ENE daylight
02 Feb - 07:30:46 10° W 07:48:08 83° N 07:59:33 10° ENE daylight
02 Feb - 09:45:40 10° W 10:00:00 82° N 10:08:22 10° E daylight
02 Feb - 11:59:39 10° WNW 12:09:45 53° SSW 12:15:47 10° SE daylight
03 Feb - 01:23:26 10° SSE 01:30:12 14° SE 01:37:17 10° ESE visible
03 Feb - 03:25:35 10° SSW 03:41:11 43° SE 03:56:23 10° E visible
03 Feb - 05:35:30 10° WSW 05:53:37 78° SSE 06:07:54 10° ENE daylight
03 Feb - 07:49:17 10° W 08:06:28 80° N 08:17:36 10° E daylight
03 Feb - 10:04:07 10° WNW 10:18:10 89° NNE 10:26:19 10° ESE daylight
03 Feb - 12:18:09 10° W 12:27:20 39° SW 12:33:07 10° SSE daylight
04 Feb - 01:37:28 10° S 01:47:52 20° SE 01:59:07 10° E visible
04 Feb - 03:42:41 10° SW 03:59:04 53° SSE 04:14:54 10° ENE visible
04 Feb - 05:53:36 10° WSW 06:11:51 87° SSE 06:26:00 10° ENE daylight
04 Feb - 08:07:50 10° W 08:24:49 79° N 08:35:40 10° E daylight
04 Feb - 10:22:32 10° WNW 10:36:13 80° SSW 10:44:11 10° ESE daylight
04 Feb - 12:36:55 10° W 12:44:46 27° SW 12:50:06 10° SSE daylight
